Temperature
1 2 1 1 2 1 1 1 2 2 2 3 3 2 2 2 2 2 2 2 2 2 2 2 1 1 1 1 1 1 1 1 1 1 1 1 1 1 1 2 2 1 1 1
1 1 1 1 1 1 1 1 1 2 2 2 3 2 2 2 2 1 2 2 2 2 2 1 1 1 1 1 1 1 1 1 1 1 1 1 1 1 1 1 1 1 1 1
1 0 1 2 1 1 1 1 1 2 3 2 1 1 1 2 2 2 2 2 2 2 1 1 1 1 0 1 0 1 1 0 0 0 1 1 1 1 1 1 1 0 0 0
-0 0 2 3 2 1 1 1 1 1 1 1 1 2 2 3 2 2 2 2 2 1 1 1 1 0 0 0 0 0 0 0 0 0 0 0 0 0 0 0 0 -0 -0 -0
-1 -0 1 2 2 1 1 2 1 1 1 1 1 1 2 3 2 2 2 2 1 1 1 1 0 0 0 0 0 0 0 -0 -0 -0 -0 -0 -0 -0 -1 -1 -1 -1 -1 -1
-1 1 1 3 2 1 2 2 1 1 1 0 0 0 1 3 2 2 2 1 1 1 1 0 0 0 -0 -0 -0 -0 -0 -0 -0 -0 -1 -1 -1 -1 -1 -1 -1 -1 -1 -1
-1 -0 1 1 1 1 2 3 2 2 1 1 -0 1 2 2 2 2 2 1 1 1 1 0 0 -0 -0 -0 -0 -0 -0 -1 -1 -1 -1 -1 -1 -1 -1 -2 -2 -2 -2 -2
-1 -0 1 1 0 1 2 3 3 3 2 2 2 2 2 2 2 1 1 1 1 0 0 0 0 -0 -1 -1 -1 -1 -1 -1 -1 -1 -1 -1 -2 -2 -2 -2 -2 -2 -2 -2
-1 1 1 1 2 3 3 2 3 3 3 2 2 2 2 1 1 1 1 0 0 0 0 0 -0 -0 -1 -1 -1 -1 -1 -1 -1 -1 -2 -2 -2 -2 -2 -2 -2 -3 -3 -3
-2 -1 -0 1 2 3 3 2 3 2 2 2 2 1 1 1 1 0 0 -0 -0 -0 -0 -0 -0 -1 -1 -1 -1 -1 -1 -1 -1 -2 -2 -2 -2 -3 -3 -3 -3 -3 -3 -3
-2 -1 -0 1 2 3 3 2 2 2 2 2 1 1 1 1 0 0 -0 -0 -0 -0 -0 -1 -1 -1 -1 -1 -1 -1 -1 -2 -2 -2 -2 -2 -3 -3 -3 -3 -3 -3 -3 -3
-0 0 -0 1 3 3 2 2 2 2 2 1 1 1 1 0 0 -0 -0 -0 -1 -1 -1 -1 -1 -1 -1 -1 -1 -2 -2 -2 -2 -2 -2 -3 -3 -3 -3 -3 -3 -3 -3 -3
1 2 2 2 2 2 2 2 1 1 1 1 1 1 0 0 0 -0 -0 -1 -1 -1 -1 -1 -1 -1 -1 -1 -2 -2 -2 -2 -2 -3 -3 -3 -3 -3 -3 -3 -3 -3 -3 -3
1 1 1 1 1 1 1 1 1 1 1 1 0 0 0 -0 -0 -0 -0 -1 -1 -1 -1 -1 -1 -1 -2 -2 -2 -2 -2 -2 -3 -3 -3 -3 -3 -4 -4 -4 -4 -4 -4 -4
1 1 1 1 1 1 1 1 0 0 0 0 0 -0 -0 -0 -0 -0 -1 -1 -1 -1 -1 -1 -2 -2 -2 -2 -2 -2 -3 -3 -3 -3 -3 -3 -4 -4 -4 -4 -4 -4 -4 -4
1 1 1 0 0 0 0 0 0 0 0 -0 -0 -0 -0 -0 -1 -1 -1 -1 -1 -1 -2 -2 -2 -2 -2 -3 -3 -3 -3 -3 -3 -3 -3 -3 -4 -4 -4 -4 -4 -4 -4 -4
-0 -0 -0 -0 0 0 0 0 0 -0 -0 -0 -0 -0 -1 -1 -1 -1 -1 -1 -2 -2 -2 -2 -2 -3 -3 -3 -3 -3 -3 -3 -3 -3 -4 -4 -4 -4 -4 -4 -4 -5 -5 -5
0 0 0 0 0 0 0 -0 -0 -0 -0 -0 -1 -1 -1 -1 -1 -1 -1 -2 -2 -2 -2 -2 -3 -3 -3 -3 -3 -3 -4 -4 -4 -4 -4 -4 -4 -4 -4 -5 -5 -5 -5 -5
0 0 0 -0 0 -0 -0 -0 -0 -0 -1 -1 -1 -1 -1 -1 -1 -2 -2 -2 -2 -2 -2 -3 -3 -3 -3 -3 -4 -4 -4 -4 -4 -4 -4 -4 -5 -5 -5 -5 -5 -5 -5 -5
0 -0 -0 -0 -0 -0 -0 -0 -0 -1 -1 -1 -1 -1 -1 -2 -2 -2 -2 -2 -3 -3 -3 -3 -3 -3 -3 -4 -4 -4 -4 -4 -4 -5 -5 -5 -5 -5 -5 -5 -5 -5 -5 -5
0 -0 -0 -0 -0 -0 -0 -1 -1 -1 -1 -1 -2 -2 -2 -2 -2 -2 -3 -3 -2 -3 -3 -3 -3 -3 -4 -4 -4 -4 -4 -5 -5 -5 -5 -5 -5 -5 -5 -5 -5 -5 -5 -5
-0 -0 -0 -0 -0 -0 -1 -1 -1 -1 -1 -2 -2 -2 -2 -2 -2 -2 -3 -3 -3 -3 -3 -3 -4 -4 -4 -4 -4 -4 -5 -5 -5 -5 -5 -6 -6 -6 -6 -6 -6 -6 -6 -6
-0 -0 -1 -1 -1 -1 -1 -1 -1 -1 -1 -2 -2 -2 -2 -2 -3 -3 -3 -3 -3 -3 -3 -4 -4 -4 -4 -4 -5 -5 -5 -5 -5 -5 -6 -6 -6 -6 -6 -6 -6 -6 -6 -6
-1 -1 -1 -1 -1 -1 -1 -1 -1 -2 -2 -2 -2 -2 -3 -3 -3 -3 -3 -3 -3 -3 -4 -4 -4 -4 -4 -5 -5 -5 -5 -5 -6 -6 -6 -6 -6 -6 -6 -6 -6 -6 -6 -6
-1 -1 -1 -1 -1 -2 -2 -2 -2 -2 -2 -2 -2 -3 -3 -3 -3 -3 -3 -4 -4 -4 -4 -4 -4 -4 -5 -5 -5 -5 -5 -6 -6 -6 -6 -6 -6 -6 -6 -6 -6 -6 -7 -7
-2 -2 -2 -2 -2 -2 -2 -2 -2 -2 -3 -3 -3 -3 -3 -4 -4 -4 -4 -4 -4 -4 -4 -4 -5 -5 -5 -5 -5 -5 -6 -6 -6 -6 -6 -7 -7 -7 -7 -7 -7 -7 -7 -7
-2 -2 -2 -2 -3 -3 -3 -3 -3 -3 -3 -3 -3 -4 -4 -4 -4 -4 -4 -4 -5 -5 -5 -5 -5 -5 -5 -5 -6 -6 -6 -6 -6 -6 -7 -7 -7 -7 -7 -7 -7 -7 -7 -7
Wind_Speed
7 7 5 7 9 8 10 9 9 10 11 14 9 8 7 6 5 4 4 4 4 4 4 4 4 4 4 4 3 3 2 3 3 3 3 3 3 3 3 3 3 3 3 3
5 4 6 9 11 12 12 10 11 12 15 12 7 4 5 5 5 5 5 5 4 4 4 4 4 5 5 4 4 3 2 3 3 3 3 3 3 2 2 2 2 2 3 3
4 4 5 9 10 11 8 8 9 12 12 6 5 6 6 6 6 6 6 5 5 5 5 5 5 4 5 5 4 3 3 3 3 3 3 3 3 2 2 2 2 2 2 3
2 3 6 7 3 7 8 9 9 9 8 6 7 7 6 6 5 6 6 5 5 5 5 5 4 4 4 4 3 3 3 3 3 2 3 2 2 2 2 2 2 2 3 3
1 3 8 8 3 5 5 7 7 9 9 6 3 4 5 5 5 6 5 5 5 5 5 4 4 4 4 4 3 2 3 3 3 3 3 2 2 3 2 2 2 2 2 2
3 3 6 6 2 3 2 6 5 7 7 5 0 3 6 5 4 4 4 3 4 3 3 3 4 3 3 3 4 4 4 4 3 3 3 3 3 2 1 2 2 2 2 1
6 6 9 6 2 4 3 7 3 5 6 5 5 6 5 4 4 4 4 4 3 3 3 3 3 2 3 4 5 5 4 3 3 2 2 2 2 1 1 1 1 1 1 2
6 6 9 4 5 6 7 3 3 4 5 6 6 5 4 4 4 4 4 3 3 3 4 3 2 2 3 5 5 4 3 2 2 2 2 1 0 0 1 1 0 0 1 2
9 9 5 5 7 6 3 4 4 4 5 5 5 5 5 4 4 4 4 4 3 3 4 4 3 2 4 5 4 3 2 2 1 1 1 0 1 1 1 1 1 1 0 1
6 10 8 8 8 7 6 7 6 5 5 4 5 5 5 4 4 4 4 4 3 3 3 4 4 3 4 4 3 2 2 2 2 1 1 0 1 1 1 1 1 1 1 1
7 8 7 7 7 7 6 5 5 5 4 4 4 5 5 5 5 4 4 4 3 3 4 5 4 4 4 3 2 2 2 2 2 1 0 1 1 1 2 2 2 2 2 1
9 7 6 7 6 5 5 6 6 5 5 4 4 5 5 5 5 4 4 3 3 4 4 4 4 4 3 2 1 1 1 2 1 1 0 0 0 1 2 1 2 2 1 1
9 5 6 7 5 4 5 6 5 5 5 5 4 4 4 4 4 4 4 4 4 4 4 4 4 4 3 2 1 1 2 2 1 1 1 1 0 0 1 2 2 2 2 1
8 5 6 6 6 6 5 5 4 3 4 4 4 3 3 3 3 4 4 4 4 3 4 4 3 4 3 2 1 2 2 2 1 1 1 1 1 1 1 1 1 2 2 2
7 7 8 6 4 4 3 2 2 3 3 3 2 3 3 3 4 5 4 3 2 2 3 3 3 4 3 1 1 1 1 1 1 1 1 1 1 1 1 0 1 1 1 1
5 4 5 4 5 5 4 3 4 5 4 3 3 3 4 3 3 3 3 2 2 3 3 3 4 4 2 1 1 1 1 2 1 0 1 1 1 1 0 0 0 0 1 1
4 4 4 4 5 5 5 5 5 5 4 4 4 3 2 2 2 3 3 3 3 3 3 3 4 3 2 1 1 1 1 1 1 0 0 1 1 0 0 0 0 0 1 1
7 7 6 6 6 5 5 5 5 5 5 5 3 2 2 3 3 4 3 2 1 2 3 3 3 2 1 1 1 1 1 0 0 0 0 0 0 1 1 0 0 0 1 1
5 5 4 4 5 4 4 4 4 4 4 3 3 4 4 4 3 3 2 1 2 4 4 2 3 1 1 2 1 1 1 1 0 0 0 1 0 0 0 0 0 1 1 1
3 3 3 3 3 3 4 3 3 3 3 3 3 3 3 3 3 2 2 3 4 3 2 1 1 1 1 2 1 1 1 1 1 0 0 0 0 0 0 0 0 1 1 1
3 3 3 3 3 3 3 3 3 3 3 3 4 4 4 3 2 2 2 3 4 2 2 2 1 1 1 1 1 1 1 1 1 1 1 1 1 0 0 1 1 1 1 1
3 3 3 3 2 2 2 2 3 3 3 2 3 3 3 2 2 2 3 3 3 2 1 1 1 2 2 2 1 2 1 1 1 1 1 1 1 1 1 1 1 1 1 1
3 3 3 3 3 2 2 1 2 3 3 3 3 3 3 3 2 2 3 2 2 3 2 2 2 3 2 1 2 2 1 1 1 1 1 1 1 1 1 1 1 1 1 1
3 3 3 2 1 1 2 3 2 2 2 3 3 3 3 2 2 2 2 3 3 3 2 3 3 3 2 2 2 2 2 2 1 1 1 1 1 1 1 1 1 1 1 1
3 2 2 2 2 3 4 3 2 1 1 1 2 2 2 2 3 2 2 2 3 2 2 3 3 3 2 2 2 2 2 2 2 1 1 1 1 1 1 1 1 1 1 1
3 3 3 4 4 3 3 2 2 2 2 2 2 2 2 1 1 1 1 1 2 2 1 1 1 2 1 2 2 2 1 1 1 1 1 1 1 1 1 1 1 1 1 1
2 2 2 2 3 3 3 3 3 3 3 3 3 2 2 1 1 1 1 1 1 1 1 1 1 1 2 2 2 1 1 1 1 1 1 1 1 1 1 1 1 1 1 1
Wind_Direction
260 269 253 244 240 218 216 215 225 248 254 271 277 275 281 286 295 301 300 303 304 306 308 313 316 312 310 305 302 293 278 272 271 274 278 282 284 282 271 252 240 235 235 241
277 263 260 262 248 231 234 232 239 259 270 266 268 271 282 280 281 285 288 290 294 301 307 306 305 307 307 301 295 284 269 273 281 281 282 284 282 286 286 267 250 241 236 239
273 308 316 272 235 211 218 217 210 237 251 267 277 272 263 260 260 262 274 281 285 290 288 290 293 295 294 290 288 280 270 275 275 272 276 284 289 296 292 278 258 248 248 246
287 353 260 251 217 197 222 242 223 237 254 254 260 276 267 248 244 260 270 276 279 284 291 293 296 302 300 298 295 282 272 271 271 273 280 287 285 286 286 287 273 259 257 251
210 261 278 288 242 183 206 264 229 233 255 265 286 322 290 248 245 252 260 269 269 272 280 291 301 306 309 313 307 294 279 274 270 265 270 270 268 268 276 288 288 282 266 255
190 228 251 258 228 168 130 280 245 216 242 249 241 296 280 279 270 269 280 280 281 290 297 298 303 308 306 305 311 298 281 275 269 259 257 253 255 258 278 276 280 286 294 301
214 236 263 258 210 134 175 259 269 220 228 221 218 237 268 286 289 283 288 287 288 294 297 289 297 311 301 305 298 292 286 283 279 270 259 247 250 261 277 285 296 306 312 328
187 217 254 217 149 189 228 266 253 239 235 232 242 265 280 285 289 294 300 299 297 301 302 304 298 293 296 296 294 298 297 287 284 281 268 252 196 247 236 221 222 293 335 337
200 221 248 201 211 234 234 254 256 248 254 234 245 261 275 278 280 286 287 293 298 288 300 307 298 275 280 292 302 311 319 308 296 294 284 234 188 205 206 196 204 231 253 311
245 257 255 253 256 263 253 248 254 253 252 230 240 255 267 273 278 283 288 291 296 291 290 296 299 286 276 288 299 309 314 313 302 287 288 261 237 213 204 207 215 225 246 270
248 268 287 269 246 247 251 250 257 260 245 235 235 257 258 266 270 273 282 287 283 273 278 284 295 292 288 290 293 301 303 309 316 321 264 216 254 237 228 220 215 215 226 221
235 235 228 260 261 247 246 254 250 251 265 257 233 242 252 262 266 268 272 279 283 284 282 288 296 292 287 280 267 277 298 305 306 316 293 226 278 335 315 282 286 283 276 264
235 245 235 259 269 248 241 250 245 235 240 254 253 240 243 261 267 267 269 271 274 279 282 289 292 291 293 287 266 257 267 282 280 273 263 233 206 209 325 333 316 309 306 288
241 247 262 260 262 264 255 252 248 252 252 244 249 249 247 262 272 267 266 269 274 281 285 285 283 286 291 286 258 261 266 273 245 238 234 227 220 221 226 256 315 321 309 307
237 227 237 258 269 274 264 246 243 263 266 268 252 243 241 246 258 266 275 284 288 284 282 282 284 290 297 280 251 253 260 272 241 233 215 203 205 206 211 238 276 306 338 336
247 239 236 245 255 260 257 241 239 252 252 250 251 253 248 242 254 272 282 278 266 270 273 275 280 288 292 271 265 256 259 281 284 176 159 171 181 183 194 229 273 276 272 292
228 248 243 249 252 254 247 240 236 242 244 243 246 250 243 239 267 278 282 274 255 259 263 264 278 291 289 263 236 240 251 276 298 315 176 171 166 175 177 185 222 283 303 298
220 227 225 224 230 238 246 243 239 237 237 241 237 227 224 224 238 255 269 286 304 296 281 270 276 287 282 267 232 212 205 231 238 214 244 217 178 160 160 174 218 278 314 324
225 228 236 232 224 222 234 242 242 239 235 222 216 227 235 238 242 251 254 251 264 278 285 276 281 281 260 259 239 177 178 192 209 247 258 257 273 91 119 105 298 291 293 314
229 225 233 243 233 220 233 245 237 238 235 217 214 227 245 253 242 230 224 244 253 258 259 264 259 251 246 243 225 169 180 192 194 203 203 196 207 224 235 271 294 301 310 315
230 229 234 245 253 246 238 236 226 234 235 209 207 223 240 254 239 211 217 265 280 258 237 250 245 242 233 218 198 167 174 182 182 186 196 213 226 247 276 291 293 295 303 313
233 226 238 241 242 264 262 241 229 230 230 225 228 227 228 244 244 244 246 250 268 259 233 234 232 234 224 205 167 161 166 173 188 193 201 210 219 238 259 276 281 284 288 293
236 230 235 237 234 250 280 260 233 225 224 225 225 224 227 231 222 228 267 263 243 245 233 225 235 233 220 168 150 164 174 184 196 209 219 222 224 232 245 259 269 269 271 273
236 233 235 234 206 225 263 269 249 237 232 239 238 228 217 227 250 248 253 252 247 244 230 235 232 223 192 148 157 171 184 192 201 206 215 231 234 236 243 254 266 272 274 275
232 231 225 215 223 237 242 244 240 235 224 247 256 247 231 220 227 241 237 233 237 238 230 234 230 210 171 153 168 180 186 196 198 193 204 220 229 235 240 247 257 266 265 260
230 232 233 232 231 233 226 215 226 233 221 239 260 253 241 230 218 219 218 224 227 222 214 214 204 192 165 167 176 184 190 208 224 218 209 222 237 239 241 251 262 258 257 260
237 239 238 247 244 228 217 211 220 229 222 219 237 241 227 216 201 198 193 191 188 181 184 184 175 174 174 174 174 179 180 184 198 210 213 218 224 238 253 257 255 253 256 255
Height
1490 1487 1487 1485 1483 1484 1485 1483 1482 1473 1470 1459 1457 1457 1455 1453 1452 1451 1450 1448 1447 1446 1445 1443 1442 1440 1438 1437 1436 1434 1433 1432 1431 1431 1430 1429 1429 1428 1428 1427 1426 1426 1427 1427
1489 1485 1484 1481 1476 1477 1477 1476 1474 1470 1464 1455 1454 1454 1453 1451 1450 1449 1447 1446 1445 1443 1442 1440 1439 1437 1436 1434 1433 1431 1430 1430 1429 1428 1427 1427 1426 1425 1424 1424 1423 1423 1423 1424
1489 1486 1481 1475 1467 1469 1469 1466 1467 1464 1457 1452 1452 1451 1450 1449 1448 1446 1445 1443 1442 1441 1439 1438 1436 1435 1433 1431 1430 1429 1428 1427 1426 1425 1425 1424 1423 1422 1421 1420 1420 1420 1420 1420
1492 1489 1482 1463 1459 1460 1461 1458 1457 1455 1451 1450 1449 1448 1447 1446 1445 1443 1442 1440 1439 1438 1436 1435 1433 1432 1430 1428 1427 1426 1425 1424 1423 1423 1422 1421 1420 1419 1419 1418 1417 1417 1417 1417
1492 1489 1476 1462 1457 1458 1459 1454 1450 1450 1448 1447 1447 1446 1443 1442 1442 1441 1439 1438 1437 1436 1434 1432 1431 1429 1427 1426 1424 1423 1422 1421 1421 1420 1419 1418 1417 1416 1416 1415 1415 1415 1414 1414
1490 1485 1474 1456 1454 1453 1456 1454 1445 1445 1445 1445 1446 1447 1441 1438 1438 1437 1436 1435 1434 1433 1431 1429 1428 1427 1425 1423 1422 1420 1419 1418 1418 1417 1416 1415 1415 1414 1414 1413 1413 1412 1412 1412
1484 1481 1467 1454 1452 1453 1458 1449 1442 1441 1441 1442 1442 1441 1438 1436 1435 1434 1433 1432 1431 1430 1428 1427 1426 1424 1422 1421 1419 1418 1417 1416 1415 1414 1413 1412 1412 1412 1411 1411 1411 1411 1410 1410
1481 1478 1464 1448 1450 1451 1446 1440 1439 1439 1438 1438 1437 1436 1435 1434 1432 1431 1430 1429 1428 1427 1425 1424 1423 1422 1419 1418 1417 1415 1414 1413 1412 1411 1410 1410 1409 1409 1409 1409 1408 1408 1408 1408
1464 1455 1446 1443 1442 1440 1439 1438 1437 1437 1436 1435 1434 1433 1432 1431 1430 1428 1428 1426 1425 1424 1422 1422 1421 1419 1417 1416 1414 1413 1411 1410 1409 1408 1408 1407 1407 1407 1407 1407 1406 1406 1406 1406
1456 1446 1441 1439 1438 1437 1436 1435 1435 1434 1434 1433 1431 1430 1429 1428 1427 1426 1425 1423 1422 1421 1419 1418 1418 1417 1415 1413 1412 1410 1409 1407 1407 1406 1405 1405 1405 1405 1405 1404 1404 1404 1404 1404
1449 1441 1437 1434 1433 1433 1433 1432 1432 1431 1430 1430 1429 1427 1426 1425 1424 1423 1422 1421 1420 1418 1417 1416 1415 1414 1412 1411 1409 1408 1406 1405 1404 1404 1403 1403 1403 1403 1403 1403 1403 1403 1403 1403
1438 1433 1434 1430 1429 1430 1429 1428 1428 1427 1426 1426 1426 1424 1423 1422 1421 1420 1419 1418 1417 1416 1415 1413 1412 1411 1410 1408 1407 1405 1404 1403 1403 1402 1401 1401 1401 1401 1401 1402 1402 1402 1403 1403
1428 1428 1428 1426 1426 1426 1425 1424 1424 1424 1423 1422 1422 1421 1420 1419 1418 1417 1416 1415 1414 1413 1412 1411 1410 1408 1407 1406 1405 1404 1402 1401 1401 1400 1400 1399 1399 1399 1399 1400 1400 1400 1400 1401
1424 1425 1423 1422 1422 1422 1421 1421 1421 1420 1420 1419 1419 1418 1417 1416 1415 1414 1413 1413 1412 1411 1409 1408 1407 1406 1405 1404 1403 1402 1401 1400 1399 1399 1398 1398 1398 1398 1398 1398 1398 1398 1399 1399
1419 1420 1419 1418 1418 1418 1417 1417 1417 1416 1416 1416 1415 1414 1414 1413 1412 1411 1411 1410 1409 1408 1407 1406 1405 1404 1403 1402 1401 1400 1399 1398 1398 1397 1397 1397 1396 1396 1396 1396 1396 1396 1397 1397
1414 1414 1414 1414 1414 1414 1414 1414 1413 1413 1413 1412 1412 1411 1411 1410 1409 1409 1408 1408 1406 1406 1405 1404 1403 1402 1401 1400 1399 1398 1398 1397 1397 1396 1396 1395 1395 1395 1395 1395 1395 1395 1395 1395
1410 1409 1409 1410 1410 1410 1410 1410 1410 1410 1410 1409 1409 1408 1408 1407 1407 1406 1406 1405 1404 1404 1403 1402 1401 1400 1399 1398 1397 1397 1396 1396 1396 1395 1395 1395 1394 1394 1394 1394 1394 1394 1394 1394
1406 1406 1406 1407 1407 1407 1407 1407 1407 1407 1406 1406 1406 1406 1405 1404 1404 1403 1403 1403 1402 1401 1401 1400 1399 1399 1397 1397 1396 1395 1395 1395 1394 1394 1394 1393 1393 1393 1393 1393 1393 1393 1393 1394
1402 1402 1403 1403 1404 1404 1404 1404 1404 1404 1404 1403 1403 1403 1402 1402 1402 1401 1400 1400 1399 1398 1398 1398 1398 1397 1396 1395 1395 1394 1394 1393 1393 1393 1393 1393 1392 1392 1392 1392 1392 1392 1392 1393
1399 1399 1400 1400 1401 1401 1401 1401 1401 1401 1400 1400 1400 1400 1399 1399 1399 1398 1398 1397 1397 1397 1397 1396 1396 1395 1394 1394 1393 1393 1392 1392 1392 1392 1391 1391 1391 1391 1391 1391 1391 1391 1391 1391
1396 1396 1397 1397 1398 1398 1398 1398 1398 1397 1397 1397 1397 1397 1396 1396 1396 1396 1395 1395 1395 1395 1394 1394 1393 1393 1392 1392 1392 1391 1391 1391 1391 1390 1390 1390 1390 1390 1390 1390 1390 1390 1390 1391
1393 1394 1394 1395 1395 1395 1395 1395 1395 1394 1394 1394 1394 1394 1394 1393 1393 1393 1393 1393 1393 1393 1392 1391 1391 1391 1390 1390 1390 1390 1389 1389 1389 1389 1389 1389 1388 1388 1389 1389 1389 1389 1389 1389
1391 1391 1392 1392 1392 1392 1392 1392 1392 1392 1391 1391 1391 1391 1391 1391 1391 1390 1390 1390 1390 1390 1389 1389 1389 1389 1388 1388 1388 1388 1388 1388 1388 1388 1387 1387 1387 1387 1387 1387 1387 1388 1388 1388
1389 1389 1389 1389 1389 1389 1389 1389 1389 1388 1388 1388 1388 1388 1388 1388 1388 1388 1388 1388 1387 1387 1387 1387 1387 1387 1387 1386 1386 1387 1387 1387 1386 1386 1386 1386 1386 1386 1386 1386 1386 1386 1386 1387
1386 1386 1386 1386 1386 1386 1386 1386 1385 1385 1385 1385 1385 1385 1385 1385 1385 1385 1385 1385 1385 1385 1385 1385 1385 1385 1385 1384 1384 1384 1385 1385 1385 1385 1385 1385 1385 1385 1385 1385 1385 1385 1385 1386
1383 1383 1383 1383 1383 1382 1382 1382 1382 1382 1382 1381 1381 1382 1382 1382 1382 1382 1382 1382 1382 1382 1382 1382 1382 1382 1382 1382 1382 1382 1383 1383 1383 1383 1383 1383 1383 1383 1383 1383 1384 1384 1384 1384
1379 1379 1378 1378 1379 1379 1379 1378 1378 1378 1378 1378 1378 1378 1378 1378 1378 1378 1379 1379 1379 1380 1380 1380 1380 1380 1380 1380 1380 1381 1381 1381 1381 1381 1381 1381 1381 1381 1381 1381 1382 1382 1383 1383